{"data":{"norad_id":60910,"intl_designator":"2024-154H","name":"STARLINK-11250 [DTC]","alt_names":[],"object_type":"PAYLOAD","status":"ACTIVE","operator":null,"country":"US","launch_date":"2024-08-31","launch_site_code":"AFETR","launch_vehicle":null,"mission":null,"orbit_class":"UNKNOWN","rcs_meters":null,"size_class":null,"mass_kg":null,"dimensions":null,"purposes":["comms"],"wikipedia_slug":null,"has_3d_model":false,"image_url":null,"decayed_at":null,"tle_current":{"epoch":"2026-05-25T03:48:54.291744Z","epoch_age_seconds":55163,"freshness":"FRESH","line1":"1 60910U 24154H   26145.15896171 -.00000519  00000+0  56674-6 0  9997","line2":"2 60910  53.1588 114.3791 0000846  78.7294 281.3819 15.69704977100524","mean_motion":15.69704977,"eccentricity":8.46e-5,"inclination_deg":53.1588,"raan_deg":114.3791,"arg_perigee_deg":78.7294,"mean_anomaly_deg":281.3819,"bstar":5.6674e-7,"rev_number":10052,"period_min":91.736983770804,"perigee_km":359.17109987209,"apogee_km":360.31114885073,"semimajor_km":6737.8781243614,"source":"CELESTRAK","updated_at":"2026-05-25T13:38:19.313526Z"}}}